sat.trackr.live / text

‹ back to catalog

POLAR

NORAD 23802 · 1996-013A

PAYLOAD ACTIVE UNKNOWN

§ Identity

Operator
Country
US
Launch date
1996-02-24
Launch site
AFWTR
Launch vehicle
Mass (kg)
RCS (m²)
6.03

Purposes: science

External: N2YO · Heavens-Above · Gunter

§ Orbital elements

Epoch: 2026-09-08T05:21:41.832576Z

Period
1,109.01 min
Inclination
79.9745°
Eccentricity
0.6555441
Mean motion
1.29845766 rev/d
Perigee alt
5,846.9 km
Apogee alt
52,378.6 km
Semi-major
35,490.9 km
B*
0.0000e+0
RAAN
226.0544°
Arg perigee
206.2322°
Mean anomaly
95.6281°
Rev number
14,593

§ Raw data

POLAR1 23802U 96013A   26251.22340084  .00000153  00000+0  00000+0 0  99902 23802  79.9745 226.0544 6555441 206.2322  95.6281  1.29845766145939

JSON: /api/v1/satellites/23802 · /tle

For live sub-satellite position, see the globe view (requires WebGL).

§ Visibility from observer

Set your observer location to see the next 7 days of passes ≥ 10°. The values pass through the URL so the page stays shareable.

No JS? Fill the form by hand. The geolocation button needs JavaScript.

§ Radio — SatNOGS DB

ModeDescriptionDownlinkUplink
FM Mode S 2.265 GHz

1 transmitter · refreshed weekly from db.satnogs.org